sat.trackr.live / text

‹ back to catalog

QIANFAN-87

NORAD 63173 · 2025-046Q

PAYLOAD ACTIVE UNKNOWN

§ Identity

Operator
Country
PRC
Launch date
2025-03-11
Launch site
WSC
Launch vehicle
Mass (kg)
RCS (m²)

External: N2YO · Heavens-Above · Gunter

§ Orbital elements

Epoch: 2026-05-25T03:11:56.991264Z

Period
106.59 min
Inclination
88.9689°
Eccentricity
0.0012011
Mean motion
13.51013737 rev/d
Perigee alt
1,059.6 km
Apogee alt
1,077.5 km
Semi-major
7,446.7 km
B*
1.1784e-4
RAAN
302.9538°
Arg perigee
24.8939°
Mean anomaly
335.2789°
Rev number
6,954

§ Raw data

QIANFAN-871 63173U 25046Q   26145.13329851  .00000088  00000+0  11784-3 0  99962 63173  88.9689 302.9538 0012011  24.8939 335.2789 13.51013737 69542

JSON: /api/v1/satellites/63173 · /tle

For live sub-satellite position, see the globe view (requires WebGL).

§ Visibility from observer

Set your observer location to see the next 7 days of passes ≥ 10°. The values pass through the URL so the page stays shareable.

No JS? Fill the form by hand. The geolocation button needs JavaScript.